Location: Anjeux
(47.8815°N, 6.2076°E)
Time: 13:55:26
(UTC+00:00)

Landsat 5 - Pass Details

Date: 05 March 2021
Orbit: 529 x 652 km, 98.2° (Epoch: 14 April)

Event Time Altitude Azimuth Distance (km) Brightness Sun altitude
Exits shadow 04:04:43 50° 326° (NW) 691 3.6 -21.4°
Drops below altitude 10° 04:07:42 10° 343° (NNW) 1,814 5.9 -20.9°
Sets 04:09:52 0° 345° (NNW) 2,725 6.9 -20.5°
